CW0962 Weather Reports


Display with metric or nautical units.
time (UTC)temp
F
wind
direction
speed
MPH
gust
MPH
rain 1hr
in
rain 24hr
in
rain mn
in
humidity
%
barometer
mb
20260509185508 62 188 6.0 16.0 0.00 0.03 0.03 63 1010.7
20260509184526 62 212 6.0 14.0 0.00 0.03 0.03 63 1010.9
20260509184000 62 200 6.0 12.0 0.00 0.03 0.03 65 1011.0
20260509183500 62 91 6.0 12.0 0.00 0.03 0.03 64 1010.8
20260509183005 62 119 6.0 12.0 0.00 0.03 0.03 64 1010.9
20260509182507 61 159 5.0 15.0 0.00 0.03 0.03 65 1010.9
20260509182002 61 155 6.0 15.0 0.00 0.03 0.03 66 1011.0
20260509181634 60 135 6.0 15.0 0.00 0.03 0.03 66 1011.0
20260509174504 60 178 5.0 10.0 0.00 0.03 0.03 68 1011.3
20260509174002 60 185 4.0 10.0 0.00 0.03 0.03 69 1011.3
20260509173503 60 104 4.0 10.0 0.00 0.03 0.03 67 1011.6
20260509173005 60 136 4.0 18.0 0.00 0.03 0.03 68 1011.6
20260509172021 60 165 6.0 18.0 0.00 0.03 0.03 65 1011.7
20260509171006 60 190 6.0 12.0 0.00 0.03 0.03 64 1011.6
20260509170502 61 154 5.0 14.0 0.00 0.03 0.03 63 1011.5
20260509170006 61 144 4.0 14.0 0.00 0.03 0.03 62 1011.5
20260509165501 61 115 5.0 14.0 0.00 0.03 0.03 61 1011.5
20260509165000 61 185 7.0 15.0 0.00 0.03 0.03 60 1011.5
20260509164459 61 158 7.0 15.0 0.00 0.03 0.03 60 1011.4
20260509164004 61 195 7.0 14.0 0.00 0.03 0.03 60 1011.4
20260509163502 61 171 7.0 14.0 0.00 0.03 0.03 61 1011.5
20260509163007 61 216 8.0 19.0 0.00 0.03 0.03 62 1011.5
20260509162501 61 159 7.0 19.0 0.00 0.03 0.03 61 1011.7
20260509162023 61 138 7.0 15.0 0.00 0.03 0.03 63 1011.7
20260509161516 60 290 7.0 15.0 0.00 0.03 0.03 61 1011.7
20260509161022 60 161 7.0 15.0 0.00 0.03 0.03 63 1011.8
20260509160458 60 152 7.0 15.0 0.00 0.03 0.03 62 1012.0
20260509160005 60 153 7.0 21.0 0.00 0.03 0.03 62 1012.0
20260509155501 60 149 8.0 21.0 0.00 0.03 0.03 63 1012.0
20260509155006 60 157 8.0 16.0 0.00 0.03 0.03 61 1012.0
20260509154521 60 152 8.0 16.0 0.00 0.03 0.03 62 1012.1
20260509154025 60 177 7.0 13.0 0.00 0.03 0.03 61 1012.2
20260509153514 60 143 5.0 11.0 0.00 0.03 0.03 63 1012.2
20260509153006 60 132 5.0 18.0 0.00 0.03 0.03 62 1012.1
20260509152501 60 22 7.0 18.0 0.00 0.03 0.03 62 1012.1
20260509152005 61 140 6.0 12.0 0.00 0.03 0.03 64 1012.3
20260509151536 61 149 6.0 12.0 0.00 0.03 0.03 65 1012.4
20260509151002 60 128 6.0 12.0 0.00 0.03 0.03 64 1012.4
20260509150501 59 165 7.0 12.0 0.00 0.03 0.03 65 1012.2
20260509145012 59 201 5.0 10.0 0.00 0.03 0.03 68 1012.2
20260509144532 59 134 4.0 10.0 0.00 0.03 0.03 68 1012.4
20260509144004 58 190 4.0 8.0 0.00 0.03 0.03 67 1012.3
20260509143504 58 187 6.0 12.0 0.00 0.03 0.03 69 1012.4
20260509143003 58 153 7.0 12.0 0.00 0.03 0.03 69 1012.4
20260509142023 57 124 6.0 10.0 0.00 0.03 0.03 72 1012.5
20260509141458 57 124 5.0 10.0 0.00 0.03 0.03 73 1012.6
20260509141030 57 171 4.0 9.0 0.00 0.03 0.03 74 1012.6
20260509135506 55 153 6.0 11.0 0.00 0.03 0.03 75 1013.0
20260509135020 55 135 6.0 15.0 0.00 0.03 0.03 74 1013.1
20260509134503 55 130 6.0 15.0 0.00 0.03 0.03 73 1013.2
20260509134002 55 138 5.0 9.0 0.00 0.03 0.03 73 1013.2
20260509133544 54 156 5.0 9.0 0.00 0.03 0.03 74 1013.1
20260509133001 54 119 4.0 9.0 0.00 0.03 0.03 76 1013.0
20260509132510 54 126 3.0 9.0 0.00 0.03 0.03 76 1013.0
20260509132003 53 153 3.0 7.0 0.00 0.03 0.03 78 1013.1
20260509131506 53 158 2.0 7.0 0.00 0.03 0.03 78 1013.3
20260509130503 52 152 4.0 8.0 0.00 0.03 0.03 80 1013.4
20260509130005 52 109 3.0 7.0 0.00 0.03 0.03 82 1013.4
20260509125505 52 104 3.0 7.0 0.00 0.03 0.03 82 1013.3
20260509125004 52 132 3.0 7.0 0.00 0.03 0.03 83 1013.3
20260509124052 51 135 3.0 5.0 0.01 0.03 0.03 87 1013.2
20260509123504 51 139 2.0 6.0 0.01 0.03 0.03 88 1013.1
20260509123004 50 165 1.0 6.0 0.02 0.03 0.03 88 1013.1
20260509122509 50 109 0.0 0.0 0.03 0.03 0.03 88 1013.0
20260509122004 49 109 0.0 0.0 0.03 0.03 0.03 88 1013.1
20260509121513 49 109 0.0 0.0 0.03 0.03 0.03 88 1013.1
20260509120458 49 208 0.0 0.0 0.03 0.03 0.03 88 1013.4
20260509120023 49 230 0.0 0.0 0.03 0.03 0.03 88 1013.6
20260509115509 48 230 0.0 0.0 0.03 0.03 0.03 88 1013.7
20260509115022 48 230 0.0 0.0 0.03 0.03 0.03 87 1013.8
20260509114508 48 230 0.0 0.0 0.02 0.02 0.02 87 1013.9
20260509114029 47 230 0.0 0.0 0.02 0.02 0.02 87 1014.1
20260509113510 47 230 0.0 2.0 0.02 0.02 0.02 86 1014.2
20260509113005 47 231 0.0 2.0 0.01 0.01 0.01 86 1014.2
20260509112517 46 237 0.0 1.0 0.00 0.00 0.00 86 1014.2
20260509112008 46 237 0.0 0.0 0.00 0.00 0.00 85 1014.2
20260509111459 46 237 0.0 0.0 0.00 0.00 0.00 85 1014.1
20260509111011 46 237 0.0 1.0 0.00 0.00 0.00 84 1014.0
20260509110510 46 237 0.0 1.0 0.00 0.00 0.00 84 1013.9
20260509110024 46 237 0.0 1.0 0.00 0.00 0.00 84 1013.9
20260509105505 45 217 0.0 1.0 0.00 0.00 0.00 83 1013.8
20260509104506 45 217 0.0 1.0 0.00 0.00 0.00 83 1013.8
20260509104026 45 217 0.0 2.0 0.00 0.00 0.00 82 1013.8
20260509103544 45 217 0.0 2.0 0.00 0.00 0.00 82 1013.7
20260509103002 45 217 0.0 2.0 0.00 0.00 0.00 82 1013.6
20260509102022 44 234 0.0 0.0 0.00 0.00 0.00 82 1013.3
20260509101026 44 234 0.0 0.0 0.00 0.00 0.00 82 1013.0
20260509100503 44 234 0.0 0.0 0.00 0.00 0.00 83 1012.7
20260509095506 43 234 0.0 0.0 0.00 0.00 0.00 83 1012.5
20260509095008 43 234 0.0 0.0 0.00 0.00 0.00 84 1012.6
20260509094513 43 234 0.0 0.0 0.00 0.00 0.00 84 1012.7
20260509094008 42 234 0.0 0.0 0.00 0.00 0.00 84 1012.6
20260509093531 42 234 0.0 0.0 0.00 0.00 0.00 85 1012.6
20260509092958 42 234 0.0 0.0 0.00 0.00 0.00 85 1012.5
20260509092458 41 234 0.0 0.0 0.00 0.00 0.00 85 1012.6
20260509091958 41 234 0.0 0.0 0.00 0.00 0.00 85 1012.6
20260509091457 41 234 0.0 0.0 0.00 0.00 0.00 85 1012.5
20260509090458 40 234 0.0 0.0 0.00 0.00 0.00 85 1012.4
20260509085959 40 234 0.0 0.0 0.00 0.00 0.00 85 1012.3
20260509085459 40 234 0.0 0.0 0.00 0.00 0.00 85 1012.3
20260509084958 40 234 0.0 0.0 0.00 0.00 0.00 85 1012.3
20260509084458 40 234 0.0 0.0 0.00 0.00 0.00 85 1012.3
20260509083959 40 234 0.0 0.0 0.00 0.00 0.00 85 1012.4
20260509083458 40 234 0.0 0.0 0.00 0.00 0.00 85 1012.4
20260509082959 40 234 0.0 0.0 0.00 0.00 0.00 85 1012.4
20260509082458 40 234 0.0 0.0 0.00 0.00 0.00 85 1012.5
20260509081958 40 234 0.0 0.0 0.00 0.00 0.00 85 1012.5
20260509081458 39 234 0.0 0.0 0.00 0.00 0.00 86 1012.5
20260509081000 39 234 0.0 0.0 0.00 0.00 0.00 86 1012.6
20260509075959 39 234 0.0 0.0 0.00 0.00 0.00 86 1012.7
20260509075458 39 234 0.0 0.0 0.00 0.00 0.00 85 1012.7
20260509074959 39 234 0.0 0.0 0.00 0.00 0.00 85 1012.7
20260509074458 39 234 0.0 0.0 0.00 0.00 0.00 85 1012.7
20260509073959 39 234 0.0 0.0 0.00 0.00 0.00 85 1012.7
20260509073458 39 234 0.0 0.0 0.00 0.00 0.00 85 1012.8
20260509072959 39 234 0.0 0.0 0.00 0.00 0.00 85 1012.8
20260509072458 39 234 0.0 0.0 0.00 0.00 0.00 85 1012.7
20260509071958 39 234 0.0 0.0 0.00 0.00 0.00 85 1012.7
20260509071458 40 234 0.0 0.0 0.00 0.00 0.00 84 1012.7
20260509070958 40 234 0.0 0.0 0.00 0.00 0.00 85 1012.7
20260509065959 40 234 0.0 0.0 0.00 0.00 0.00 84 1012.5
20260509065458 40 234 0.0 0.0 0.00 0.00 0.00 84 1012.6
20260509064958 40 234 0.0 0.0 0.00 0.00 0.00 84 1012.6
20260509064457 40 234 0.0 0.0 0.00 0.00 0.00 84 1012.5
20260509063458 40 234 0.0 0.0 0.00 0.00 0.00 84 1012.5
20260509062959 40 234 0.0 0.0 0.00 0.00 0.00 84 1012.6
20260509062458 40 234 0.0 0.0 0.00 0.00 0.00 84 1012.5
20260509060959 40 234 0.0 0.0 0.00 0.00 0.00 83 1012.3
20260509055959 41 234 0.0 0.0 0.00 0.00 0.00 82 1012.2
20260509055457 41 234 0.0 0.0 0.00 0.00 0.00 82 1012.2
20260509054958 41 234 0.0 0.0 0.00 0.00 0.00 82 1012.2
20260509054457 41 234 0.0 0.0 0.00 0.00 0.00 81 1012.3
20260509053959 41 234 0.0 0.0 0.00 0.00 0.00 81 1012.3
20260509053458 42 234 0.0 0.0 0.00 0.00 0.00 81 1012.3
20260509052458 42 234 0.0 0.0 0.00 0.00 0.00 79 1012.2
20260509051457 42 234 0.0 0.0 0.00 0.00 0.00 80 1012.3
20260509050959 42 234 0.0 1.0 0.00 0.00 0.00 80 1012.3
20260509050001 42 234 1.0 2.0 0.00 0.00 0.00 79 1012.3
20260509045459 42 234 0.0 2.0 0.00 0.00 0.00 79 1012.3
20260509044959 42 234 0.0 2.0 0.00 0.00 0.00 79 1012.2
20260509044458 42 234 0.0 1.0 0.00 0.00 0.00 78 1012.1
20260509043459 42 234 0.0 1.0 0.00 0.00 0.00 78 1012.1
20260509042459 43 234 0.0 1.0 0.00 0.00 0.00 77 1012.0
20260509041959 43 234 0.0 1.0 0.00 0.00 0.00 77 1012.1
20260509041458 44 234 0.0 1.0 0.00 0.00 0.00 75 1012.0
20260509041000 44 234 0.0 1.0 0.00 0.00 0.00 73 1011.9
20260509040459 44 234 0.0 1.0 0.00 0.00 0.00 73 1011.9
20260509035000 44 234 0.0 1.0 0.00 0.00 0.00 73 1011.9
20260509034459 44 234 0.0 1.0 0.00 0.00 0.00 74 1011.9
20260509033500 44 234 1.0 4.0 0.00 0.00 0.00 73 1011.9
20260509033001 45 227 0.0 4.0 0.00 0.00 0.00 71 1011.8
20260509031500 46 227 0.0 1.0 0.00 0.00 0.00 70 1011.9
20260509030459 46 227 1.0 2.0 0.00 0.00 0.00 70 1011.7
20260509030005 46 227 1.0 2.0 0.00 0.00 0.00 69 1011.6
20260509025501 46 225 1.0 4.0 0.00 0.00 0.00 69 1011.6
20260509025002 46 225 1.0 4.0 0.00 0.00 0.00 68 1011.6
20260509024502 46 210 1.0 5.0 0.00 0.00 0.00 69 1011.5
20260509024001 46 210 1.0 5.0 0.00 0.00 0.00 69 1011.5
20260509023501 46 220 1.0 4.0 0.00 0.00 0.00 68 1011.4
20260509023002 47 220 1.0 5.0 0.00 0.00 0.00 69 1011.4
20260509022501 47 217 1.0 5.0 0.00 0.00 0.00 68 1011.3
20260509021500 47 236 0.0 2.0 0.00 0.00 0.00 67 1011.2
20260509021002 47 240 0.0 4.0 0.00 0.00 0.00 66 1011.2
20260509020501 47 240 0.0 4.0 0.00 0.00 0.00 63 1011.1
20260509015459 47 242 1.0 8.0 0.00 0.00 0.00 66 1011.0
20260509015000 47 232 1.0 8.0 0.00 0.00 0.00 66 1010.9
20260509014500 48 223 1.0 2.0 0.00 0.00 0.00 67 1010.9
20260509014001 48 223 1.0 2.0 0.00 0.00 0.00 65 1010.9
20260509013501 48 223 1.0 5.0 0.00 0.00 0.00 61 1010.7
20260509012001 49 198 0.0 0.0 0.00 0.00 0.00 60 1010.4
20260509011500 49 198 0.0 1.0 0.00 0.00 0.00 59 1010.3
20260509011001 49 198 1.0 2.0 0.00 0.00 0.00 61 1010.2
20260509010500 49 198 1.0 4.0 0.00 0.00 0.00 60 1010.1
20260509010004 49 198 1.0 4.0 0.00 0.00 0.00 60 1010.0
20260509005501 50 232 1.0 5.0 0.00 0.00 0.00 58 1009.9
20260509005002 50 241 1.0 5.0 0.00 0.00 0.00 57 1009.8
20260509004500 50 198 1.0 4.0 0.00 0.00 0.00 57 1009.7
20260509004002 50 198 1.0 4.0 0.00 0.00 0.00 56 1009.5
20260509003502 50 194 1.0 4.0 0.00 0.00 0.00 55 1009.3
20260509003002 51 222 1.0 4.0 0.00 0.00 0.00 56 1009.3
20260509002500 51 236 1.0 4.0 0.00 0.00 0.00 55 1009.2
20260509002002 51 199 2.0 7.0 0.00 0.00 0.00 56 1009.1
20260509001501 52 203 2.0 7.0 0.00 0.00 0.00 55 1009.0
20260509001002 52 217 1.0 6.0 0.00 0.00 0.00 54 1008.9
20260509000501 52 178 2.0 6.0 0.00 0.00 0.00 51 1008.7
20260508235459 53 211 2.0 9.0 0.00 0.00 0.00 50 1008.5
20260508234459 53 143 3.0 9.0 0.00 0.00 0.00 50 1008.5
20260508234009 54 240 2.0 9.0 0.00 0.00 0.00 52 1008.4
20260508233028 55 165 3.0 9.0 0.00 0.00 0.00 47 1008.3
20260508232010 56 234 4.0 11.0 0.00 0.00 0.00 44 1008.2
20260508231510 55 134 3.0 11.0 0.00 0.00 0.00 44 1008.1
20260508231008 56 208 3.0 8.0 0.00 0.00 0.00 46 1008.0
20260508230515 56 211 3.0 10.0 0.00 0.00 0.00 45 1008.1
20260508230004 55 209 3.0 10.0 0.00 0.00 0.00 45 1008.0
20260508225502 56 208 3.0 8.0 0.00 0.00 0.00 46 1008.0
20260508225030 56 240 4.0 8.0 0.00 0.00 0.00 45 1007.9
20260508224005 57 179 5.0 12.0 0.00 0.00 0.00 42 1007.9
20260508223502 57 179 4.0 12.0 0.00 0.00 0.00 42 1007.9
20260508223006 58 229 4.0 9.0 0.00 0.00 0.00 41 1007.7
20260508222503 58 178 4.0 9.0 0.00 0.00 0.00 43 1007.7
20260508222019 58 296 4.0 10.0 0.00 0.00 0.00 42 1007.7
20260508221000 58 194 3.0 7.0 0.00 0.00 0.00 42 1007.8
20260508220459 58 235 2.0 8.0 0.00 0.00 0.00 41 1007.7
20260508220007 59 317 2.0 8.0 0.00 0.00 0.00 42 1007.7
20260508215459 59 320 2.0 9.0 0.00 0.00 0.00 40 1007.6
20260508215000 59 319 3.0 9.0 0.00 0.00 0.00 40 1007.7
20260508214459 59 282 2.0 7.0 0.00 0.00 0.00 40 1007.6
20260508213001 60 341 3.0 10.0 0.00 0.00 0.00 38 1007.5
20260508212459 60 19 3.0 8.0 0.00 0.00 0.00 38 1007.6
20260508212000 59 184 3.0 8.0 0.00 0.00 0.00 39 1007.5
20260508211459 59 315 4.0 10.0 0.00 0.00 0.00 38 1007.5
20260508211000 60 193 3.0 10.0 0.00 0.00 0.00 37 1007.4
20260508210459 60 253 3.0 11.0 0.00 0.00 0.00 40 1007.3
20260508210003 60 263 4.0 11.0 0.00 0.00 0.00 35 1007.2
20260508205459 60 302 3.0 7.0 0.00 0.00 0.00 37 1007.0
20260508204500 60 54 2.0 7.0 0.00 0.00 0.00 36 1007.0
20260508204000 60 327 2.0 7.0 0.00 0.00 0.00 37 1007.0
20260508203500 60 271 2.0 7.0 0.00 0.00 0.00 36 1006.9
20260508202500 59 240 5.0 14.0 0.00 0.00 0.00 45 1006.8
20260508202001 59 187 5.0 14.0 0.00 0.00 0.00 42 1006.8
20260508201459 59 221 4.0 13.0 0.00 0.00 0.00 42 1006.7
20260508201000 59 200 4.0 10.0 0.00 0.00 0.00 42 1006.7
20260508200459 59 211 4.0 13.0 0.00 0.00 0.00 39 1006.8
20260508195459 60 216 3.0 13.0 0.00 0.00 0.00 33 1006.5
20260508195000 61 225 2.0 6.0 0.00 0.00 0.00 35 1006.4
20260508194459 62 235 2.0 7.0 0.00 0.00 0.00 33 1006.3
20260508194000 62 155 3.0 7.0 0.00 0.00 0.00 30 1006.2
20260508193459 63 246 5.0 13.0 0.00 0.00 0.00 31 1006.2
20260508193000 63 254 5.0 13.0 0.00 0.00 0.00 32 1006.2
20260508192459 62 225 4.0 13.0 0.00 0.00 0.00 29 1006.2
20260508192000 64 229 2.0 11.0 0.00 0.00 0.00 30 1006.2
20260508191500 63 197 2.0 7.0 0.00 0.00 0.00 31 1006.2
20260508191000 63 309 4.0 10.0 0.00 0.00 0.00 31 1006.1
20260508190459 62 255 4.0 10.0 0.00 0.00 0.00 32 1006.1